This is the latest recevied weather packets stored in our database for station/object DB0ADS-6. If no packets are shown the sender has not sent any weather packets the latest 10 day(s).
| Time | Temp. | Humidity | Pressure | Rain* | Wind** | Luminosity | Snow |
|---|---|---|---|---|---|---|---|
| 1777550177 | 13.33° C | 26% | 1027.1 hPa | 0 mm | - | - | - |
| 1777549854 | 13.33° C | 26% | 1027.1 hPa | 0 mm | - | - | - |
| 1777549552 | 13.33° C | 25% | 1027.2 hPa | 0 mm | - | - | - |
| 1777549251 | 13.33° C | 26% | 1027.1 hPa | 0 mm | - | - | - |
| 1777548949 | 12.78° C | 26% | 1027.1 hPa | 0 mm | - | - | - |
| 1777548647 | 12.78° C | 26% | 1027.2 hPa | 0 mm | - | - | - |
| 1777548346 | 12.78° C | 27% | 1027.3 hPa | 0 mm | - | - | - |
| 1777548064 | 12.78° C | 25% | 1027.3 hPa | 0 mm | - | - | - |
| 1777547742 | 12.78° C | 26% | 1027.4 hPa | 0 mm | - | - | - |
| 1777547440 | 12.78° C | 23% | 1027.4 hPa | 0 mm | - | - | - |
| 1777547146 | 12.22° C | 26% | 1027.5 hPa | 0 mm | - | - | - |
| 1777546841 | 12.22° C | 25% | 1027.5 hPa | 0 mm | - | - | - |
| 1777546536 | 12.78° C | 25% | 1027.5 hPa | 0 mm | - | - | - |
| 1777546234 | 12.22° C | 26% | 1027.6 hPa | 0 mm | - | - | - |
| 1777545932 | 12.22° C | 25% | 1027.6 hPa | 0 mm | - | - | - |
| 1777545630 | 12.22° C | 26% | 1027.6 hPa | 0 mm | - | - | - |
| 1777545329 | 12.78° C | 25% | 1027.6 hPa | 0 mm | - | - | - |
| 1777545048 | 12.22° C | 26% | 1027.6 hPa | 0 mm | - | - | - |
| 1777544726 | 12.22° C | 27% | 1027.6 hPa | 0 mm | - | - | - |
| 1777544424 | 12.22° C | 26% | 1027.8 hPa | 0 mm | - | - | - |
| 1777544121 | 12.22° C | 27% | 1027.7 hPa | 0 mm | - | - | - |
| 1777543820 | 11.67° C | 27% | 1027.8 hPa | 0 mm | - | - | - |
| 1777543542 | 11.11° C | 27% | 1027.8 hPa | 0 mm | - | - | - |
| 1777543216 | 11.11° C | 27% | 1027.7 hPa | 0 mm | - | - | - |
| 1777542996 | 11.67° C | 26% | 1027.9 hPa | 0 mm | - | - | - |
* Rain latest hour (hover to see other rain measurements)
** Current wind speed in m/s (hover to see current wind gust speed)